Year,Month,Day,Hour,Minute,Value (Times are PST for temperature in C)
2007,10,22,09,56,10.90
2007,10,22,09,57,10.90
2007,10,22,09,58,11.00
2007,10,22,09,59,11.10
2007,10,22,10,00,11.20
2007,10,22,10,01,11.20
2007,10,22,10,02,11.20
2007,10,22,10,03,11.30
2007,10,22,10,04,11.30
2007,10,22,10,05,11.30
2007,10,22,10,06,11.40
2007,10,22,10,07,11.40
2007,10,22,10,08,11.40
2007,10,22,10,09,11.30
2007,10,22,10,10,11.30
2007,10,22,10,11,11.20
2007,10,22,10,12,11.20
2007,10,22,10,13,11.20
2007,10,22,10,14,11.20
2007,10,22,10,15,11.30
2007,10,22,10,16,11.30
2007,10,22,10,17,11.30
2007,10,22,10,18,11.20
2007,10,22,10,19,11.20
2007,10,22,10,20,11.30
2007,10,22,10,21,11.30
2007,10,22,10,22,11.30
2007,10,22,10,23,11.40
2007,10,22,10,24,11.40
2007,10,22,10,25,11.40
2007,10,22,10,26,11.40
2007,10,22,10,27,11.40
2007,10,22,10,28,11.50
2007,10,22,10,29,11.50
2007,10,22,10,30,11.50
2007,10,22,10,31,11.50
2007,10,22,10,32,11.50
2007,10,22,10,33,11.40
2007,10,22,10,34,11.40
2007,10,22,10,35,11.40
2007,10,22,10,36,11.40
2007,10,22,10,37,11.40
2007,10,22,10,38,11.40
2007,10,22,10,39,11.40
2007,10,22,10,40,11.40
2007,10,22,10,41,11.40
2007,10,22,10,42,11.40
2007,10,22,10,43,11.30
2007,10,22,10,44,11.30
2007,10,22,10,45,11.30
2007,10,22,10,46,11.30
2007,10,22,10,47,11.30
2007,10,22,10,48,11.30
2007,10,22,10,49,11.30
2007,10,22,10,50,11.30
2007,10,22,10,51,11.30
2007,10,22,10,52,11.30
2007,10,22,10,53,11.30
2007,10,22,10,54,11.30
2007,10,22,10,55,11.30
2007,10,22,10,56,11.30
2007,10,22,10,57,11.20
2007,10,22,10,58,11.20
2007,10,22,10,59,11.20
2007,10,22,11,00,11.20
2007,10,22,11,01,11.20
2007,10,22,11,02,11.20
2007,10,22,11,03,11.10
2007,10,22,11,04,11.00
2007,10,22,11,05,11.00
2007,10,22,11,06,10.90
2007,10,22,11,07,11.00
2007,10,22,11,08,11.00
2007,10,22,11,09,11.00
2007,10,22,11,10,11.00
2007,10,22,11,11,11.10
2007,10,22,11,12,11.10
2007,10,22,11,13,11.10
2007,10,22,11,14,11.10
2007,10,22,11,15,11.20
2007,10,22,11,16,11.20
2007,10,22,11,17,11.20
2007,10,22,11,18,11.20
2007,10,22,11,19,11.20
2007,10,22,11,20,11.30
2007,10,22,11,21,11.30
2007,10,22,11,22,11.30
2007,10,22,11,23,11.30
2007,10,22,11,24,11.30
2007,10,22,11,25,11.30
2007,10,22,11,26,11.30
2007,10,22,11,27,11.30
2007,10,22,11,28,11.30
2007,10,22,11,29,11.30
2007,10,22,11,30,11.40
2007,10,22,11,31,11.40
2007,10,22,11,32,11.40
2007,10,22,11,33,11.40
2007,10,22,11,34,11.40
2007,10,22,11,35,11.40
2007,10,22,11,36,11.50
2007,10,22,11,37,11.50
2007,10,22,11,38,11.50
2007,10,22,11,39,11.50
2007,10,22,11,40,11.40
2007,10,22,11,41,11.40
2007,10,22,11,42,11.40
2007,10,22,11,43,11.50
2007,10,22,11,44,11.50
2007,10,22,11,45,11.50
2007,10,22,11,46,11.40
2007,10,22,11,47,11.40
2007,10,22,11,48,11.30
2007,10,22,11,49,11.30
2007,10,22,11,50,11.30
2007,10,22,11,51,11.30
2007,10,22,11,52,11.30
2007,10,22,11,53,11.30
2007,10,22,11,54,11.20
2007,10,22,11,55,11.20
2007,10,22,11,56,11.10
2007,10,22,11,57,11.10
2007,10,22,11,58,11.10
2007,10,22,11,59,11.10
2007,10,22,12,00,11.10
2007,10,22,12,01,11.00
2007,10,22,12,02,11.00
2007,10,22,12,03,10.90
2007,10,22,12,04,10.90
2007,10,22,12,05,10.90
2007,10,22,12,06,10.80
2007,10,22,12,07,10.80
2007,10,22,12,08,10.90
2007,10,22,12,09,10.90
2007,10,22,12,10,10.90
2007,10,22,12,11,10.90
2007,10,22,12,12,10.90
2007,10,22,12,13,10.90
2007,10,22,12,14,11.00
2007,10,22,12,15,11.00
2007,10,22,12,16,10.90
2007,10,22,12,17,10.90
2007,10,22,12,18,10.80
2007,10,22,12,19,10.80
2007,10,22,12,20,10.70
2007,10,22,12,21,10.70
2007,10,22,12,22,10.70
2007,10,22,12,23,10.70
2007,10,22,12,24,10.70
2007,10,22,12,25,10.70
2007,10,22,12,26,10.70
2007,10,22,12,27,10.70
2007,10,22,12,28,10.70
2007,10,22,12,29,10.70
2007,10,22,12,30,10.70
2007,10,22,12,31,10.70
2007,10,22,12,32,10.70
2007,10,22,12,33,10.70
2007,10,22,12,34,10.70
2007,10,22,12,35,10.70
2007,10,22,12,36,10.60
2007,10,22,12,37,10.60
2007,10,22,12,38,10.60
2007,10,22,12,39,10.60
2007,10,22,12,40,10.60
2007,10,22,12,41,10.60
2007,10,22,12,42,10.60
2007,10,22,12,43,10.60
2007,10,22,12,44,10.60
2007,10,22,12,45,10.50
2007,10,22,12,46,10.50
2007,10,22,12,47,10.50
2007,10,22,12,48,10.50
2007,10,22,12,49,10.40
2007,10,22,12,50,10.40
2007,10,22,12,51,10.50
2007,10,22,12,52,10.50
2007,10,22,12,53,10.50
2007,10,22,12,54,10.50
2007,10,22,12,55,10.50
2007,10,22,12,56,10.50
2007,10,22,12,57,10.60
2007,10,22,12,58,10.60
2007,10,22,12,59,10.60
2007,10,22,13,00,10.70
2007,10,22,13,01,10.70
2007,10,22,13,02,10.70
2007,10,22,13,03,10.70
2007,10,22,13,04,10.80
2007,10,22,13,05,10.80
2007,10,22,13,06,10.90
2007,10,22,13,07,10.90
2007,10,22,13,08,11.00
2007,10,22,13,09,11.00
2007,10,22,13,10,11.10
2007,10,22,13,11,11.10
2007,10,22,13,12,11.10
2007,10,22,13,13,11.10
2007,10,22,13,14,11.10
2007,10,22,13,15,11.10
2007,10,22,13,16,11.10
2007,10,22,13,17,11.10
2007,10,22,13,18,11.10
2007,10,22,13,19,11.20
2007,10,22,13,20,11.20
2007,10,22,13,21,11.20
2007,10,22,13,22,11.20
2007,10,22,13,23,11.30
2007,10,22,13,24,11.30
2007,10,22,13,25,11.40
2007,10,22,13,26,11.40
2007,10,22,13,27,11.40
2007,10,22,13,28,11.40
2007,10,22,13,29,11.50
2007,10,22,13,30,11.50
2007,10,22,13,31,11.60
2007,10,22,13,32,11.60
2007,10,22,13,33,11.60
2007,10,22,13,34,11.60
2007,10,22,13,35,11.70
2007,10,22,13,36,11.70
2007,10,22,13,37,11.70
2007,10,22,13,38,11.80
2007,10,22,13,39,11.80
2007,10,22,13,40,11.80
2007,10,22,13,41,11.90
2007,10,22,13,42,11.90
2007,10,22,13,43,11.90
2007,10,22,13,44,11.90
2007,10,22,13,45,11.90
2007,10,22,13,46,11.90
2007,10,22,13,47,12.00
2007,10,22,13,48,12.00
2007,10,22,13,49,12.00
2007,10,22,13,50,12.10
2007,10,22,13,51,12.10
2007,10,22,13,52,12.10
2007,10,22,13,53,12.10
2007,10,22,13,54,12.10
2007,10,22,13,55,12.20
2007,10,22,13,56,12.30
2007,10,22,13,57,12.30
2007,10,22,13,58,12.40
2007,10,22,13,59,12.40
2007,10,22,14,00,12.50
2007,10,22,14,01,12.50
2007,10,22,14,02,12.50
2007,10,22,14,03,12.50
2007,10,22,14,04,12.50
2007,10,22,14,05,12.40
2007,10,22,14,06,12.40
2007,10,22,14,07,12.40
2007,10,22,14,08,12.40
2007,10,22,14,09,12.40
2007,10,22,14,10,12.40
2007,10,22,14,11,12.40
2007,10,22,14,12,12.40
2007,10,22,14,13,12.40
2007,10,22,14,14,12.40
2007,10,22,14,15,12.40
2007,10,22,14,16,12.50
2007,10,22,14,17,12.50
2007,10,22,14,18,12.60
2007,10,22,14,19,12.50
2007,10,22,14,20,12.50
2007,10,22,14,21,12.50
2007,10,22,14,22,12.50
2007,10,22,14,23,12.50
2007,10,22,14,24,12.50
2007,10,22,14,25,12.50
2007,10,22,14,26,12.50
2007,10,22,14,27,12.40
2007,10,22,14,28,12.40
2007,10,22,14,29,12.30
2007,10,22,14,30,12.30
2007,10,22,14,31,12.30
2007,10,22,14,32,12.20
2007,10,22,14,33,12.20
2007,10,22,14,34,12.20
2007,10,22,14,35,12.10
2007,10,22,14,36,12.10
2007,10,22,14,37,12.00
2007,10,22,14,38,11.90
2007,10,22,14,39,11.90
2007,10,22,14,40,11.90
2007,10,22,14,41,11.90
2007,10,22,14,42,11.90
2007,10,22,14,43,12.00
2007,10,22,14,44,12.00
2007,10,22,14,45,12.10
2007,10,22,14,46,12.10
2007,10,22,14,47,12.10
2007,10,22,14,48,12.20
2007,10,22,14,49,12.20
2007,10,22,14,50,12.10
2007,10,22,14,51,12.20
2007,10,22,14,52,12.20
2007,10,22,14,53,12.20
2007,10,22,14,54,12.20
2007,10,22,14,55,12.20
2007,10,22,14,56,12.20
2007,10,22,14,57,12.20
2007,10,22,14,58,12.30
2007,10,22,14,59,12.30
2007,10,22,15,00,12.30
2007,10,22,15,01,12.40
2007,10,22,15,02,12.40
2007,10,22,15,03,12.50
2007,10,22,15,04,12.60
2007,10,22,15,05,12.70
2007,10,22,15,06,12.70
2007,10,22,15,07,12.80
2007,10,22,15,08,12.80
2007,10,22,15,09,12.80
2007,10,22,15,10,12.80
2007,10,22,15,11,12.80
2007,10,22,15,12,12.80
2007,10,22,15,13,12.80
2007,10,22,15,14,12.80
2007,10,22,15,15,12.80
2007,10,22,15,16,12.80
2007,10,22,15,17,12.80
2007,10,22,15,18,12.90
2007,10,22,15,19,12.90
2007,10,22,15,20,12.90
2007,10,22,15,21,12.90
2007,10,22,15,22,13.00
2007,10,22,15,23,13.00
2007,10,22,15,24,13.00
2007,10,22,15,25,13.00
2007,10,22,15,26,13.00
2007,10,22,15,27,13.00
2007,10,22,15,28,12.90
2007,10,22,15,29,12.90
2007,10,22,15,30,12.90
2007,10,22,15,31,12.90
2007,10,22,15,32,12.90
2007,10,22,15,33,12.90
2007,10,22,15,34,12.80
2007,10,22,15,35,12.80
2007,10,22,15,36,12.80
2007,10,22,15,37,12.80
2007,10,22,15,38,12.90
2007,10,22,15,39,12.90
2007,10,22,15,40,12.90
2007,10,22,15,41,12.90
2007,10,22,15,42,12.90
2007,10,22,15,43,13.00
2007,10,22,15,44,13.00
2007,10,22,15,45,13.10
2007,10,22,15,46,13.10
2007,10,22,15,47,13.10
2007,10,22,15,48,13.10
2007,10,22,15,49,13.10
2007,10,22,15,50,13.10
2007,10,22,15,51,13.10
2007,10,22,15,52,13.00
2007,10,22,15,53,12.90
2007,10,22,15,54,12.80
2007,10,22,15,55,12.80
2007,10,22,15,56,12.70
2007,10,22,15,57,12.70
2007,10,22,15,58,12.70
2007,10,22,15,59,12.70
2007,10,22,16,00,12.70
2007,10,22,16,01,12.70
2007,10,22,16,02,12.80
2007,10,22,16,03,12.80
2007,10,22,16,04,12.90
2007,10,22,16,05,13.00
2007,10,22,16,06,13.10
2007,10,22,16,07,13.20
2007,10,22,16,08,13.30
2007,10,22,16,09,13.30
2007,10,22,16,10,13.40
2007,10,22,16,11,13.50
2007,10,22,16,12,13.60
2007,10,22,16,13,13.60
2007,10,22,16,14,13.60
2007,10,22,16,15,13.70
2007,10,22,16,16,13.80
2007,10,22,16,17,13.80
2007,10,22,16,18,13.80
2007,10,22,16,19,13.90
2007,10,22,16,20,13.90
2007,10,22,16,21,13.90
2007,10,22,16,22,13.80
2007,10,22,16,23,13.80
2007,10,22,16,24,13.80
2007,10,22,16,25,13.80
2007,10,22,16,26,13.70
2007,10,22,16,27,13.70
2007,10,22,16,28,13.60
2007,10,22,16,29,13.60
2007,10,22,16,30,13.60
2007,10,22,16,31,13.60
2007,10,22,16,32,13.60
2007,10,22,16,33,13.60
2007,10,22,16,34,13.50
2007,10,22,16,35,13.50
2007,10,22,16,36,13.40
2007,10,22,16,37,13.30
2007,10,22,16,38,13.30
2007,10,22,16,39,13.30
2007,10,22,16,40,13.30
2007,10,22,16,41,13.40
2007,10,22,16,42,13.30
2007,10,22,16,43,13.30
2007,10,22,16,44,13.30
2007,10,22,16,45,13.30
2007,10,22,16,46,13.40
2007,10,22,16,47,13.40
2007,10,22,16,48,13.40
2007,10,22,16,49,13.40
2007,10,22,16,50,13.40
2007,10,22,16,51,13.40
2007,10,22,16,52,13.40
2007,10,22,16,53,13.30
2007,10,22,16,54,13.40
2007,10,22,16,55,13.30
2007,10,22,16,56,13.30
2007,10,22,16,57,13.20
2007,10,22,16,58,13.20
2007,10,22,16,59,13.20
2007,10,22,17,00,13.10
2007,10,22,17,01,13.00
2007,10,22,17,02,13.00
2007,10,22,17,03,12.90
2007,10,22,17,04,12.90
2007,10,22,17,05,12.90
2007,10,22,17,06,12.90
2007,10,22,17,07,12.80
2007,10,22,17,08,12.80
2007,10,22,17,09,12.80
2007,10,22,17,10,12.70
2007,10,22,17,11,12.70
2007,10,22,17,12,12.70
2007,10,22,17,13,12.60
2007,10,22,17,14,12.60
2007,10,22,17,15,12.60
2007,10,22,17,16,12.60
2007,10,22,17,17,12.60
2007,10,22,17,18,12.50
2007,10,22,17,19,12.50
2007,10,22,17,20,12.40
2007,10,22,17,21,12.30
2007,10,22,17,22,12.30
2007,10,22,17,23,12.20
2007,10,22,17,24,12.20
2007,10,22,17,25,12.20
2007,10,22,17,26,12.10
2007,10,22,17,27,12.00
2007,10,22,17,28,12.00
2007,10,22,17,29,11.90
2007,10,22,17,30,11.90
2007,10,22,17,31,11.80
2007,10,22,17,32,11.80
2007,10,22,17,33,11.70
2007,10,22,17,34,11.70
2007,10,22,17,35,11.70
2007,10,22,17,36,11.70
2007,10,22,17,37,11.70
2007,10,22,17,38,11.60
2007,10,22,17,39,11.50
2007,10,22,17,40,11.50
2007,10,22,17,41,11.40
2007,10,22,17,42,11.30
2007,10,22,17,43,11.30
2007,10,22,17,44,11.20
2007,10,22,17,45,11.20
2007,10,22,17,46,11.10
2007,10,22,17,47,11.00
2007,10,22,17,48,10.90
2007,10,22,17,49,10.90
2007,10,22,17,50,10.80
2007,10,22,17,51,10.80
2007,10,22,17,52,10.80
2007,10,22,17,53,10.70
2007,10,22,17,54,10.70
2007,10,22,17,55,10.60
2007,10,22,17,56,10.60
2007,10,22,17,57,10.50
2007,10,22,17,58,10.50
2007,10,22,17,59,10.40
2007,10,22,18,00,10.40
2007,10,22,18,01,10.40
2007,10,22,18,02,10.40
2007,10,22,18,03,10.40
2007,10,22,18,04,10.30
2007,10,22,18,05,10.30
2007,10,22,18,06,10.30
2007,10,22,18,07,10.30
2007,10,22,18,08,10.30
2007,10,22,18,09,10.20
2007,10,22,18,10,10.20
2007,10,22,18,11,10.20
2007,10,22,18,12,10.10
2007,10,22,18,13,10.10
2007,10,22,18,14,10.10
2007,10,22,18,15,10.00
2007,10,22,18,16,10.00
2007,10,22,18,17,10.00
2007,10,22,18,18,9.90
2007,10,22,18,19,9.90
2007,10,22,18,20,9.90
2007,10,22,18,21,9.90
2007,10,22,18,22,9.90
2007,10,22,18,23,9.80
2007,10,22,18,24,9.80
2007,10,22,18,25,9.80
2007,10,22,18,26,9.80
2007,10,22,18,27,9.80
2007,10,22,18,28,9.70
2007,10,22,18,29,9.70
2007,10,22,18,30,9.70
2007,10,22,18,31,9.70
2007,10,22,18,32,9.70
2007,10,22,18,33,9.70
2007,10,22,18,34,9.70
2007,10,22,18,35,9.60
2007,10,22,18,36,9.60
2007,10,22,18,37,9.60
2007,10,22,18,38,9.60
2007,10,22,18,39,9.60
2007,10,22,18,40,9.60
2007,10,22,18,41,9.60
2007,10,22,18,42,9.60
2007,10,22,18,43,9.60
2007,10,22,18,44,9.60
2007,10,22,18,45,9.60
2007,10,22,18,46,9.60
2007,10,22,18,47,9.60
2007,10,22,18,48,9.60
2007,10,22,18,49,9.60
2007,10,22,18,50,9.60
2007,10,22,18,51,9.60
2007,10,22,18,52,9.60
2007,10,22,18,53,9.60
2007,10,22,18,54,9.50
2007,10,22,18,55,9.50
2007,10,22,18,56,9.50
2007,10,22,18,57,9.50
2007,10,22,18,58,9.50
2007,10,22,18,59,9.50
2007,10,22,19,00,9.50
2007,10,22,19,01,9.50
2007,10,22,19,02,9.50
2007,10,22,19,03,9.50
2007,10,22,19,04,9.50
2007,10,22,19,05,9.50
2007,10,22,19,06,9.50
2007,10,22,19,07,9.50
2007,10,22,19,08,9.60
2007,10,22,19,09,9.50
2007,10,22,19,10,9.60
2007,10,22,19,11,9.60
2007,10,22,19,12,9.50
2007,10,22,19,13,9.50
2007,10,22,19,14,9.50
2007,10,22,19,15,9.50
2007,10,22,19,16,9.50
2007,10,22,19,17,9.50
2007,10,22,19,18,9.50
2007,10,22,19,19,9.50
2007,10,22,19,20,9.50
2007,10,22,19,21,9.60
2007,10,22,19,22,9.60
2007,10,22,19,23,9.60
2007,10,22,19,24,9.60
2007,10,22,19,25,9.60
2007,10,22,19,26,9.60
2007,10,22,19,27,9.60
2007,10,22,19,28,9.60
2007,10,22,19,29,9.60
2007,10,22,19,30,9.60
2007,10,22,19,31,9.60
2007,10,22,19,32,9.60
2007,10,22,19,33,9.70
2007,10,22,19,34,9.70
2007,10,22,19,35,9.80
2007,10,22,19,36,9.80
2007,10,22,19,37,9.80
2007,10,22,19,38,9.80
2007,10,22,19,39,9.90
2007,10,22,19,40,9.90
2007,10,22,19,41,9.90
2007,10,22,19,42,9.90
2007,10,22,19,43,9.90
2007,10,22,19,44,9.90
2007,10,22,19,45,9.90
2007,10,22,19,46,9.90
2007,10,22,19,47,9.90
2007,10,22,19,48,9.90
2007,10,22,19,49,9.90
2007,10,22,19,50,10.00
2007,10,22,19,51,10.00
2007,10,22,19,52,10.00
2007,10,22,19,53,10.00
2007,10,22,19,54,10.00
2007,10,22,19,55,10.10
2007,10,22,19,56,10.10
2007,10,22,19,57,10.10
2007,10,22,19,58,10.10
2007,10,22,19,59,10.10
2007,10,22,20,00,10.10
2007,10,22,20,01,10.10
2007,10,22,20,02,10.10
2007,10,22,20,03,10.10
2007,10,22,20,04,10.10
2007,10,22,20,05,10.10
2007,10,22,20,06,10.10
2007,10,22,20,07,10.10
2007,10,22,20,08,10.10
2007,10,22,20,09,10.10
2007,10,22,20,10,10.10
2007,10,22,20,11,10.10
2007,10,22,20,12,10.20
2007,10,22,20,13,10.20
2007,10,22,20,14,10.20
2007,10,22,20,15,10.20
2007,10,22,20,16,10.20
2007,10,22,20,17,10.30
2007,10,22,20,18,10.30
2007,10,22,20,19,10.30
2007,10,22,20,20,10.30
2007,10,22,20,21,10.30
2007,10,22,20,22,10.30
2007,10,22,20,23,10.30
2007,10,22,20,24,10.30
2007,10,22,20,25,10.30
2007,10,22,20,26,10.30
2007,10,22,20,27,10.30
2007,10,22,20,28,10.30
2007,10,22,20,29,10.30
2007,10,22,20,30,10.30
2007,10,22,20,31,10.30
2007,10,22,20,32,10.30
2007,10,22,20,33,10.30
2007,10,22,20,34,10.30
2007,10,22,20,35,10.30
2007,10,22,20,36,10.40
2007,10,22,20,37,10.40
2007,10,22,20,38,10.40
2007,10,22,20,39,10.50
2007,10,22,20,40,10.50
2007,10,22,20,41,10.60
2007,10,22,20,42,10.60
2007,10,22,20,43,10.60
2007,10,22,20,44,10.70
2007,10,22,20,45,10.70
2007,10,22,20,46,10.70
2007,10,22,20,47,10.70
2007,10,22,20,48,10.70
2007,10,22,20,49,10.70
2007,10,22,20,50,10.70
2007,10,22,20,51,10.70
2007,10,22,20,52,10.80
2007,10,22,20,53,10.80
2007,10,22,20,54,10.80
2007,10,22,20,55,10.80
2007,10,22,20,56,10.80
2007,10,22,20,57,10.90
2007,10,22,20,58,10.90
2007,10,22,20,59,11.00
2007,10,22,21,00,11.00
2007,10,22,21,01,11.10
2007,10,22,21,02,11.10
2007,10,22,21,03,11.10
2007,10,22,21,04,11.10
2007,10,22,21,05,11.10
2007,10,22,21,06,11.10
2007,10,22,21,07,11.10
2007,10,22,21,08,11.10
2007,10,22,21,09,11.10
2007,10,22,21,10,11.10
2007,10,22,21,11,11.00
2007,10,22,21,12,11.00
2007,10,22,21,13,11.00
2007,10,22,21,14,11.00
2007,10,22,21,15,10.90
2007,10,22,21,16,10.90
2007,10,22,21,17,10.90
2007,10,22,21,18,10.80
2007,10,22,21,19,10.80
2007,10,22,21,20,10.80
2007,10,22,21,21,10.80
2007,10,22,21,22,10.80
2007,10,22,21,23,10.80
2007,10,22,21,24,10.80
2007,10,22,21,25,10.80
2007,10,22,21,26,10.80
2007,10,22,21,27,10.90
2007,10,22,21,28,10.90
2007,10,22,21,29,10.90
2007,10,22,21,30,10.90
2007,10,22,21,31,10.90
2007,10,22,21,32,11.00
2007,10,22,21,33,11.00
2007,10,22,21,34,11.00
2007,10,22,21,35,11.00
2007,10,22,21,36,11.00
2007,10,22,21,37,11.00
2007,10,22,21,38,11.00
2007,10,22,21,39,11.00
2007,10,22,21,40,11.00
2007,10,22,21,41,10.90
2007,10,22,21,42,10.90
2007,10,22,21,43,10.90
2007,10,22,21,44,10.90
2007,10,22,21,45,10.90
2007,10,22,21,46,10.90
2007,10,22,21,47,10.90
2007,10,22,21,48,10.90
2007,10,22,21,49,10.80
2007,10,22,21,50,10.80
2007,10,22,21,51,10.80
2007,10,22,21,52,10.80
2007,10,22,21,53,10.80
2007,10,22,21,54,10.80
2007,10,22,21,55,10.80
2007,10,22,21,56,10.80
2007,10,22,21,57,10.80
2007,10,22,21,58,10.80
2007,10,22,21,59,10.80
2007,10,22,22,00,10.80
2007,10,22,22,01,10.80
2007,10,22,22,02,10.80
2007,10,22,22,03,10.80
2007,10,22,22,04,10.80
2007,10,22,22,05,10.80
2007,10,22,22,06,10.80
2007,10,22,22,07,10.80
2007,10,22,22,08,10.80
2007,10,22,22,09,10.80
2007,10,22,22,10,10.80
2007,10,22,22,11,10.80
2007,10,22,22,12,10.80
2007,10,22,22,13,10.80
2007,10,22,22,14,10.80
2007,10,22,22,15,10.80
2007,10,22,22,16,10.80
2007,10,22,22,17,10.80
2007,10,22,22,18,10.80
2007,10,22,22,19,10.80
2007,10,22,22,20,10.80
2007,10,22,22,21,10.80
2007,10,22,22,22,10.80
2007,10,22,22,23,10.80
2007,10,22,22,24,10.80
2007,10,22,22,25,10.80
2007,10,22,22,26,10.80
2007,10,22,22,27,10.80
2007,10,22,22,28,10.80
2007,10,22,22,29,10.80
2007,10,22,22,30,10.80
2007,10,22,22,31,10.90
2007,10,22,22,32,10.90
2007,10,22,22,33,10.90
2007,10,22,22,34,10.90
2007,10,22,22,35,10.90
2007,10,22,22,36,10.90
2007,10,22,22,37,10.90
2007,10,22,22,38,10.90
2007,10,22,22,39,10.90
2007,10,22,22,40,10.90
2007,10,22,22,41,10.90
2007,10,22,22,42,10.90
2007,10,22,22,43,10.90
2007,10,22,22,44,10.90
2007,10,22,22,45,10.90
2007,10,22,22,46,10.90
2007,10,22,22,47,10.90
2007,10,22,22,48,10.90
2007,10,22,22,49,10.90
2007,10,22,22,50,10.90
2007,10,22,22,51,10.90
2007,10,22,22,52,10.90
2007,10,22,22,53,10.90
2007,10,22,22,54,10.90
2007,10,22,22,55,10.90
2007,10,22,22,56,11.00
2007,10,22,22,57,11.00
2007,10,22,22,58,11.00
2007,10,22,22,59,11.00
2007,10,22,23,00,11.00
2007,10,22,23,01,11.00
2007,10,22,23,02,11.00
2007,10,22,23,03,11.00
2007,10,22,23,04,11.00
2007,10,22,23,05,11.00
2007,10,22,23,06,11.00
2007,10,22,23,07,11.00
2007,10,22,23,08,11.00
2007,10,22,23,09,11.00
2007,10,22,23,10,11.10
2007,10,22,23,11,11.10
2007,10,22,23,12,11.10
2007,10,22,23,13,11.10
2007,10,22,23,14,11.10
2007,10,22,23,15,11.10
2007,10,22,23,16,11.10
2007,10,22,23,17,11.10
2007,10,22,23,18,11.10
2007,10,22,23,19,11.10
2007,10,22,23,20,11.10
2007,10,22,23,21,11.10
2007,10,22,23,22,11.10
2007,10,22,23,23,11.10
2007,10,22,23,24,11.10
2007,10,22,23,25,11.10
2007,10,22,23,26,11.10
2007,10,22,23,27,11.10
2007,10,22,23,28,11.10
2007,10,22,23,29,11.20
2007,10,22,23,30,11.20
2007,10,22,23,31,11.20
2007,10,22,23,32,11.20
2007,10,22,23,33,11.20
2007,10,22,23,34,11.20
2007,10,22,23,35,11.20
2007,10,22,23,36,11.20
2007,10,22,23,37,11.20
2007,10,22,23,38,11.20
2007,10,22,23,39,11.20
2007,10,22,23,40,11.20
2007,10,22,23,41,11.20
2007,10,22,23,42,11.30
2007,10,22,23,43,11.30
2007,10,22,23,44,11.30
2007,10,22,23,45,11.30
2007,10,22,23,46,11.30
2007,10,22,23,47,11.30
2007,10,22,23,48,11.30
2007,10,22,23,49,11.30
2007,10,22,23,50,11.30
2007,10,22,23,51,11.40
2007,10,22,23,52,11.40
2007,10,22,23,53,11.40
2007,10,22,23,54,11.40
2007,10,22,23,55,11.40
2007,10,22,23,56,11.50
2007,10,22,23,57,11.50
2007,10,22,23,58,11.50
2007,10,22,23,59,11.60
